Regional Weather Roundup
Issued by NWS

Home | Current Version | Previous Version | Graphics & Text | Print | Product List | Glossary Off
Versions: 1 2 3 4 5 6 7 8 9 10 11 12 13 14 15 16 17 18 19 20 21 22 23 24 25 26 27 28 29 30 31 32 33 34 35 36 37 38 39 40 41 42 43 44 45 46 47 48 49 50

779
ASUS43 KDTX 251110
RWRMI
MICHIGAN HOURLY REGIONAL WEATHER ROUNDUP
NATIONAL WEATHER SERVICE DETROIT/PONTIAC MI
700 AM EDT MON SEP 25 2017

NOTE: "FAIR" INDICATES FEW OR NO CLOUDS BELOW 12,000 FEET WITH NO
SIGNIFICANT WEATHER AND/OR OBSTRUCTION TO VISIBILITY.

MIZ047>049-052>055-059>063-066>070-074>076-081>083-251200-
SOUTHEAST LOWER MICHIGAN

CITY           SKY/WX    TMP DP  RH WIND       PRES   REMARKS
ADRIAN         PTCLDY    61  60  97 CALM      30.07R FOG
ALMA           PTCLDY    59  57  95 CALM      30.06S FOG
ANN ARBOR      PTCLDY    61  61 100 CALM      30.06S
BAD AXE        PTCLDY    63  61  92 CALM      30.08R
CARO             N/A     58  57  95 CALM      30.06R FOG
DETROIT CITY   CLEAR     67  66  97 CALM      30.06S FOG
DETROIT        PTCLDY    69  65  86 CALM      30.07R
FLINT          CLOUDY    63  61  93 CALM      30.07R
GROSSE ILE     PTCLDY    66  64  94 CALM      30.05R
HILLSDALE      FOG       63  61  94 CALM      30.07R VSB 1/2
HOWELL         PTCLDY    63  61  95 CALM      30.07R FOG

CITY           SKY/WX    TMP DP  RH WIND       PRES   REMARKS
JACKSON        PTCLDY    64  61  90 CALM      30.07R FOG
LAMBERTVILLE   FOG       65  62  93 CALM      30.05S VSB 1/4
LANSING        MOCLDY    66  61  84 CALM      30.06S
LAPEER         FAIR      59  59  97 CALM      30.07S FOG
MASON          MOCLDY    65  63  93 CALM      30.07R FOG
MONROE         CLOUDY    64  62  93 CALM      30.05S FOG
MT. CLEMENS    CLEAR     63  63  99 CALM      30.05S
PONTIAC        PTCLDY    65  64  97 CALM      30.07R
PORT HURON     FOG       59  59 100 CALM      30.08R VSB 1/4
TRI CITIES     MOCLDY    66  64  93 CALM      30.07R
MIDLAND        FAIR      60  60 100 CALM      30.06R
TROY           CLEAR     67  64  90 CALM      30.08S
SAGINAW HB     MOCLDY    61  57  88 CALM      30.06R
$$
MIZ043>046-050>051-056>058-064>065-071>073-077>080-251200-
SOUTHWEST LOWER MICHIGAN

CITY           SKY/WX    TMP DP  RH WIND       PRES   REMARKS
BATTLE CREEK   PTCLDY    64  63  96 CALM      30.06S
BENTON HARBOR  CLEAR     64  57  78 SE3       30.03S
BIG RAPIDS     CLEAR     57  55  93 CALM      30.06R
COLDWATER        N/A     64  64 100 CALM      30.07R FOG
FREMONT        FAIR      62  61  94 CALM      30.03S
HOLLAND        PTCLDY    64  60  87 S5        30.04R
GRAND RAPIDS   PTCLDY    65  62  90 SE6       30.05R
IONIA          FAIR      63  61  95 CALM      30.05S
KALAMAZOO      CLEAR     66  62  87 CALM      30.07R FOG
LUDINGTON      CLEAR     58  56  91 CALM      30.02R
MARSHALL       CLEAR     62  62  98 CALM      30.06S FOG
MOUNT PLEASANT PTCLDY    61  60  96 CALM      30.05S
MUSKEGON       PTCLDY    64  59  83 SE3       30.03R
SOUTH HAVEN    CLEAR     65  60  84 CALM      30.04R
$$
MIZ016>042-251200-
NORTHERN LOWER MICHIGAN

CITY           SKY/WX    TMP DP  RH WIND       PRES   REMARKS
ALPENA         CLEAR     63  60  90 SW3       30.05R
BEAVER ISLAND  CLEAR     70  63  78 S7        30.00S
BELLAIRE         N/A     57  56  96 CALM      30.03R FOG
CADILLAC       CLEAR     57  53  85 CALM      30.06S
CHARLEVOIX     CLEAR     69  62  78 SE6       30.04R
FRANKFORT      CLEAR     64  60  87 CALM      30.01R
GAYLORD        CLEAR     62  57  83 CALM      30.06S
GRAYLING       CLEAR     53  50  90 CALM      30.08R
HARBOR SPRINGS CLEAR     66  61  83 CALM      30.01S
HOUGHTON LAKE  CLEAR     56  55  97 CALM      30.08R
MANISTEE       CLEAR     60  58  92 E3        30.02R
OSCODA         CLEAR     62  62  99 CALM      30.05S
PELLSTON       FOG       56  56 100 CALM      30.02S VSB 3/4
ROGERS CITY    CLEAR     67  61  78 SW8       30.04R
TRAVERSE CITY  PTCLDY    67  60  78 CALM      30.01R
$$
MIZ007>008-015-251200-
EASTERN UPPER MICHIGAN

CITY           SKY/WX    TMP DP  RH WIND       PRES   REMARKS
KINROSS        CLEAR     68  63  84 S5        30.01S
MACKINAC ISLAN CLEAR     73  60  63 S10       30.01R
NEWBERRY       PTCLDY    67  66  97 S9        29.99S
S. S. MARIE    CLEAR     64  62  93 NE3       30.00S
MUNISING         N/A     67  64  90 S6        29.95R
$$
MIZ004>006-011>014-085-251200-
CENTRAL UPPER MICHIGAN

CITY           SKY/WX    TMP DP  RH WIND       PRES   REMARKS
MANISTIQUE     CLEAR     64  58  81 S5        29.98S
MENOMINEE      CLEAR     62  61  96 CALM      29.98R
SAWYER-GWINN   CLEAR     63  61  94 S7        29.97R
$$
MIZ001>003-009>011-084-251200-
WESTERN UPPER MICHIGAN

CITY           SKY/WX    TMP DP  RH WIND       PRES   REMARKS
IRON MOUNTAIN  CLOUDY    65  60  84 SE5       29.96S
HOUGHTON       PTCLDY    68  60  75 SW5       29.91R
COPPER HARBOR    N/A     69  61  75 N6        29.88R
IRONWOOD       CLOUDY    66  63  90 W3        29.94R
$$

ABBREVIATIONS USED IN REMARKS
   TC - TEMPERATURE IN CELSIUS
  WCI - WIND CHILL INDEX
   HX - HEAT INDEX
  VSB - VISIBILITY





USA.gov is the U.S. government's official web portal to all federal, state and local government web resources and services.